• In Russia
  • List of Countries
  • For 7 days
  • Water Temperature
  • Satellite Maps
  • Weather Map
  • Weather Widgets
  • user-avatar
    Login

    Hourly Weather Mayrhofen

    Today, 23 January, Tuesday

    Time Temperature Precipitation Wind Pressure Humidity
    00:00 -2°C° 0.6 mm 2 mps 614 mmHg 96%
    01:00 -2°C° 0.6 mm 2 mps 615 mmHg 96%
    02:00 -2°C° 0.4 mm 2 mps 615 mmHg 96%
    03:00 -3°C° 0.4 mm 2 mps 615 mmHg 95%
    04:00 -3°C° 0.4 mm 2 mps 616 mmHg 95%
    05:00 -4°C° 0.4 mm 2 mps 616 mmHg 95%
    06:00 -4°C° 0.4 mm 2 mps 616 mmHg 95%
    07:00 -4°C° 0.4 mm 2 mps 617 mmHg 94%
    08:00 -4°C° 0.2 mm 2 mps 617 mmHg 94%
    09:00 -4°C° 0.2 mm 2 mps 618 mmHg 94%
    10:00 -3°C° 0.2 mm 2 mps 619 mmHg 94%
    11:00 -3°C° 0.1 mm 2 mps 619 mmHg 94%
    12:00 -3°C° 0.1 mm 2 mps 619 mmHg 93%
    13:00 -2°C° 0.1 mm 2 mps 620 mmHg 93%
    14:00 0°C° 0 mm 1 mps 620 mmHg 93%
    15:00 -1°C° 0 mm 1 mps 620 mmHg 92%
    16:00 -1°C° 0 mm 1 mps 620 mmHg 92%
    17:00 -3°C° 0 mm 1 mps 619 mmHg 87%
    18:00 -4°C° 0 mm 1 mps 619 mmHg 83%
    19:00 -6°C° 0 mm 1 mps 619 mmHg 78%
    20:00 -6°C° 0 mm 1 mps 619 mmHg 74%
    21:00 -7°C° 0 mm 1 mps 619 mmHg 69%
    22:00 -7°C° 0 mm 1 mps 619 mmHg 65%
    23:00 -6°C° 0 mm 1 mps 620 mmHg 64%

    Tomorrow, 24 January, Wednesday

    Time Temperature Precipitation Wind Pressure Humidity
    00:00 -6°C° 0 mm 1 mps 620 mmHg 64%
    01:00 -4°C° 0 mm 1 mps 620 mmHg 63%
    02:00 -4°C° 0 mm 1 mps 621 mmHg 63%
    03:00 -3°C° 0 mm 1 mps 621 mmHg 64%
    04:00 -2°C° 0 mm 1 mps 621 mmHg 64%
    05:00 -3°C° 0 mm 1 mps 621 mmHg 63%
    06:00 -3°C° 0 mm 1 mps 620 mmHg 63%
    07:00 -3°C° 0 mm 1 mps 620 mmHg 63%
    08:00 -2°C° 0 mm 1 mps 621 mmHg 68%
    09:00 0°C° 0 mm 1 mps 621 mmHg 73%
    10:00 +1°C° 0 mm 1 mps 622 mmHg 78%
    11:00 +1°C° 0 mm 1 mps 622 mmHg 83%
    12:00 +1°C° 0 mm 2 mps 622 mmHg 89%
    13:00 +2°C° 0 mm 2 mps 621 mmHg 95%
    14:00 +1°C° 0 mm 2 mps 621 mmHg 93%
    15:00 +1°C° 0 mm 2 mps 621 mmHg 91%
    16:00 -1°C° 0 mm 2 mps 620 mmHg 89%
    17:00 -2°C° 0 mm 2 mps 620 mmHg 85%
    18:00 -3°C° 0 mm 2 mps 619 mmHg 82%
    19:00 -6°C° 0 mm 3 mps 619 mmHg 79%
    20:00 -6°C° 0 mm 3 mps 619 mmHg 78%
    21:00 -6°C° 0 mm 3 mps 619 mmHg 77%
    22:00 -6°C° 0 mm 3 mps 619 mmHg 76%
    23:00 -6°C° 0 mm 3 mps 618 mmHg 75%

    Day after tomorrow, 25 January, Thursday

    Time Temperature Precipitation Wind Pressure Humidity
    00:00 -6°C° 0 mm 2 mps 618 mmHg 74%
    01:00 -6°C° 0 mm 2 mps 618 mmHg 73%
    02:00 -6°C° 0 mm 2 mps 618 mmHg 72%
    03:00 -5°C° 0 mm 2 mps 618 mmHg 72%
    04:00 -5°C° 0 mm 2 mps 617 mmHg 72%
    05:00 -5°C° 0 mm 2 mps 617 mmHg 73%
    06:00 -5°C° 0 mm 2 mps 617 mmHg 74%
    07:00 -5°C° 0 mm 2 mps 617 mmHg 74%
    08:00 -5°C° 0 mm 3 mps 617 mmHg 76%
    09:00 -4°C° 0 mm 3 mps 617 mmHg 78%
    10:00 -4°C° 0 mm 3 mps 617 mmHg 80%
    11:00 -2°C° 0 mm 3 mps 617 mmHg 83%
    12:00 -1°C° 0 mm 3 mps 617 mmHg 86%
    13:00 -1°C° 0 mm 3 mps 616 mmHg 89%
    14:00 -1°C° 0 mm 3 mps 616 mmHg 90%
    15:00 -1°C° 0 mm 3 mps 616 mmHg 91%
    16:00 -2°C° 0 mm 3 mps 615 mmHg 92%
    17:00 -2°C° 0 mm 3 mps 615 mmHg 92%
    18:00 -3°C° 0 mm 2 mps 615 mmHg 91%
    19:00 -4°C° 0 mm 2 mps 614 mmHg 91%
    20:00 -4°C° 0 mm 2 mps 614 mmHg 91%
    21:00 -5°C° 0 mm 3 mps 614 mmHg 91%
    22:00 -5°C° 0 mm 3 mps 614 mmHg 91%
    23:00 -5°C° 0 mm 3 mps 614 mmHg 91%

    26 January, Friday

    Time Temperature Precipitation Wind Pressure Humidity
    00:00 -5°C° 0 mm 3 mps 614 mmHg 91%
    01:00 -5°C° 0 mm 3 mps 613 mmHg 91%
    02:00 -5°C° 0.1 mm 3 mps 613 mmHg 91%
    03:00 -5°C° 0.1 mm 3 mps 613 mmHg 91%
    04:00 -5°C° 0.1 mm 3 mps 612 mmHg 92%
    05:00 -6°C° 0.1 mm 3 mps 612 mmHg 92%
    06:00 -6°C° 0.1 mm 3 mps 612 mmHg 92%
    07:00 -5°C° 0.1 mm 2 mps 612 mmHg 92%
    08:00 -4°C° 0.1 mm 2 mps 612 mmHg 92%
    09:00 -3°C° 0.1 mm 2 mps 613 mmHg 93%
    10:00 -2°C° 0.1 mm 2 mps 613 mmHg 93%
    11:00 -2°C° 0.2 mm 2 mps 613 mmHg 94%
    12:00 -2°C° 0.2 mm 2 mps 613 mmHg 95%
    13:00 -1°C° 0.2 mm 2 mps 614 mmHg 96%
    14:00 -2°C° 0.9 mm 2 mps 614 mmHg 96%
    15:00 -2°C° 0.9 mm 2 mps 614 mmHg 96%
    16:00 -2°C° 0.9 mm 2 mps 614 mmHg 97%
    17:00 -1°C° 1.8 mm 1 mps 614 mmHg 97%
    18:00 -1°C° 1.8 mm 1 mps 614 mmHg 97%
    19:00 -2°C° 1.8 mm 1 mps 614 mmHg 97%
    20:00 -2°C° 2.1 mm 1 mps 614 mmHg 97%
    21:00 -2°C° 2.1 mm 1 mps 615 mmHg 97%
    22:00 -3°C° 2.1 mm 1 mps 615 mmHg 97%
    23:00 -3°C° 1.4 mm 1 mps 615 mmHg 97%

    27 January, Saturday

    Time Temperature Precipitation Wind Pressure Humidity
    00:00 -5°C° 1.4 mm 2 mps 615 mmHg 97%
    01:00 -5°C° 1.4 mm 2 mps 616 mmHg 96%
    02:00 -5°C° 1 mm 2 mps 616 mmHg 96%
    03:00 -6°C° 1 mm 2 mps 616 mmHg 96%
    04:00 -6°C° 1 mm 2 mps 616 mmHg 96%
    05:00 -6°C° 0.8 mm 2 mps 616 mmHg 96%
    06:00 -6°C° 0.8 mm 2 mps 617 mmHg 96%
    07:00 -6°C° 0.8 mm 2 mps 617 mmHg 96%
    08:00 -6°C° 0.6 mm 2 mps 618 mmHg 95%
    09:00 -3°C° 0.6 mm 1 mps 618 mmHg 95%
    10:00 -3°C° 0.6 mm 1 mps 619 mmHg 94%
    11:00 -3°C° 0.3 mm 1 mps 619 mmHg 94%
    12:00 -2°C° 0.3 mm 1 mps 620 mmHg 94%
    13:00 -1°C° 0.3 mm 1 mps 620 mmHg 93%
    14:00 -1°C° 0.1 mm 1 mps 620 mmHg 93%
    15:00 -1°C° 0.1 mm 1 mps 620 mmHg 93%
    16:00 -1°C° 0.1 mm 1 mps 621 mmHg 93%
    17:00 -2°C° 0 mm 1 mps 621 mmHg 94%
    18:00 -4°C° 0 mm 1 mps 621 mmHg 95%
    19:00 -6°C° 0 mm 0 mps 621 mmHg 95%
    20:00 -6°C° 0 mm 1 mps 621 mmHg 93%
    21:00 -7°C° 0 mm 1 mps 621 mmHg 92%
    22:00 -7°C° 0 mm 1 mps 621 mmHg 90%
    23:00 -7°C° 0 mm 1 mps 621 mmHg 88%

    28 January, Sunday

    Time Temperature Precipitation Wind Pressure Humidity
    00:00 -8°C° 0 mm 2 mps 621 mmHg 85%
    01:00 -8°C° 0 mm 2 mps 621 mmHg 83%
    02:00 -8°C° 0 mm 2 mps 621 mmHg 82%
    03:00 -8°C° 0 mm 2 mps 621 mmHg 81%
    04:00 -8°C° 0 mm 2 mps 621 mmHg 80%
    05:00 -7°C° 0 mm 1 mps 621 mmHg 78%
    06:00 -7°C° 0 mm 1 mps 621 mmHg 77%
    07:00 -8°C° 0 mm 1 mps 621 mmHg 75%
    08:00 -6°C° 0 mm 1 mps 622 mmHg 75%
    09:00 -3°C° 0 mm 1 mps 623 mmHg 75%
    10:00 -1°C° 0 mm 1 mps 624 mmHg 75%
    11:00 0°C° 0 mm 1 mps 624 mmHg 79%
    12:00 +1°C° 0 mm 1 mps 624 mmHg 83%
    13:00 +2°C° 0 mm 1 mps 624 mmHg 87%
    14:00 +2°C° 0.1 mm 1 mps 624 mmHg 86%
    15:00 +2°C° 0.1 mm 1 mps 624 mmHg 84%
    16:00 -1°C° 0.1 mm 2 mps 624 mmHg 82%
    17:00 -1°C° 0.2 mm 2 mps 624 mmHg 81%
    18:00 -2°C° 0.2 mm 2 mps 624 mmHg 80%
    19:00 -3°C° 0.2 mm 2 mps 624 mmHg 78%
    20:00 -3°C° 0.2 mm 2 mps 624 mmHg 81%
    21:00 -3°C° 0.2 mm 2 mps 625 mmHg 84%
    22:00 -2°C° 0.2 mm 2 mps 625 mmHg 87%
    23:00 -2°C° 0.2 mm 2 mps 625 mmHg 89%
    Show more